owner,sensor,date,latitude,longitude,vertical_datum,mass_concentration_of_oxygen_in_sea_water,qcFlag 
SCCF RECON,ioos:station:SCCF:51:1,2009-09-10T19:00:00Z,26.5545,-82.1715,1.866,6.92,1111122 
SCCF RECON,ioos:station:SCCF:51:1,2009-09-10T20:00:00Z,26.5545,-82.1715,1.96,5.43,1111122 
SCCF RECON,ioos:station:SCCF:51:1,2009-09-10T21:00:00Z,26.5545,-82.1715,2.01,6.27,1111122 
SCCF RECON,ioos:station:SCCF:51:1,2009-09-10T22:00:00Z,26.5545,-82.1715,2.06,5.4,1111122 
SCCF RECON,ioos:station:SCCF:51:1,2009-09-10T23:00:00Z,26.5545,-82.1715,2.055,5.36,1111122 
SCCF RECON,ioos:station:SCCF:51:1,2009-09-11T00:00:00Z,26.5545,-82.1715,2.023,6.14,1111122 
SCCF RECON,ioos:station:SCCF:51:1,2009-09-11T01:00:00Z,26.5545,-82.1715,2.037,6.36,1111122 
SCCF RECON,ioos:station:SCCF:51:1,2009-09-11T02:00:00Z,26.5545,-82.1715,2.047,6.31,1111122 
SCCF RECON,ioos:station:SCCF:51:1,2009-09-11T03:00:00Z,26.5545,-82.1715,2.059,6.24,1111122 
SCCF RECON,ioos:station:SCCF:51:1,2009-09-11T04:00:00Z,26.5545,-82.1715,2.063,6.34,1111122 
SCCF RECON,ioos:station:SCCF:51:1,2009-09-11T05:00:00Z,26.5545,-82.1715,2.1,6.1,1111122 
SCCF RECON,ioos:station:SCCF:51:1,2009-09-11T06:00:00Z,26.5545,-82.1715,2.164,6.17,1111122 
SCCF RECON,ioos:station:SCCF:51:1,2009-09-11T07:00:00Z,26.5545,-82.1715,2.23,5.72,1111122 
SCCF RECON,ioos:station:SCCF:51:1,2009-09-11T08:00:00Z,26.5545,-82.1715,2.29,4.69,1111122 
SCCF RECON,ioos:station:SCCF:51:1,2009-09-11T09:00:00Z,26.5545,-82.1715,2.308,4.59,1111122 
SCCF RECON,ioos:station:SCCF:51:1,2009-09-11T10:00:00Z,26.5545,-82.1715,2.28,4.3,1111122 
SCCF RECON,ioos:station:SCCF:51:1,2009-09-11T11:00:00Z,26.5545,-82.1715,2.221,4.71,1111122 
SCCF RECON,ioos:station:SCCF:51:1,2009-09-11T12:00:00Z,26.5545,-82.1715,2.162,5.7,1111122 
SCCF RECON,ioos:station:SCCF:51:1,2009-09-11T13:00:00Z,26.5545,-82.1715,2.084,5.78,1111122 
SCCF RECON,ioos:station:SCCF:51:1,2009-09-11T14:00:00Z,26.5545,-82.1715,1.975,5.38,1111122 
SCCF RECON,ioos:station:SCCF:51:1,2009-09-11T15:00:00Z,26.5545,-82.1715,1.859,5.45,1111122 
SCCF RECON,ioos:station:SCCF:51:1,2009-09-11T16:00:00Z,26.5545,-82.1715,1.752,5.46,1111122 
SCCF RECON,ioos:station:SCCF:51:1,2009-09-11T17:00:00Z,26.5545,-82.1715,1.671,5.65,1111122 
SCCF RECON,ioos:station:SCCF:51:1,2009-09-11T18:00:00Z,26.5545,-82.1715,1.666,5.76,1111122 
SCCF RECON,ioos:station:SCCF:51:1,2009-09-11T19:00:00Z,26.5545,-82.1715,1.719,6.24,1111122 
SCCF RECON,ioos:station:SCCF:51:1,2009-09-11T20:00:00Z,26.5545,-82.1715,1.826,6.7,1111122 
SCCF RECON,ioos:station:SCCF:51:1,2009-09-11T21:00:00Z,26.5545,-82.1715,1.918,6.62,1111122 
SCCF RECON,ioos:station:SCCF:51:1,2009-09-11T22:00:00Z,26.5545,-82.1715,1.98,6.07,1111122 
SCCF RECON,ioos:station:SCCF:51:1,2009-09-11T23:00:00Z,26.5545,-82.1715,2.03,5.79,1111122 
SCCF RECON,ioos:station:SCCF:51:1,2009-09-12T00:00:00Z,26.5545,-82.1715,2.08,6.21,1111122 
SCCF RECON,ioos:station:SCCF:51:1,2009-09-12T01:00:00Z,26.5545,-82.1715,2.11,6.17,1111122 
SCCF RECON,ioos:station:SCCF:51:1,2009-09-12T02:00:00Z,26.5545,-82.1715,2.137,5.95,1111122 
SCCF RECON,ioos:station:SCCF:51:1,2009-09-12T03:00:00Z,26.5545,-82.1715,2.141,5.67,1111122 
SCCF RECON,ioos:station:SCCF:51:1,2009-09-12T04:00:00Z,26.5545,-82.1715,2.141,5.55,1111122 
SCCF RECON,ioos:station:SCCF:51:1,2009-09-12T05:00:00Z,26.5545,-82.1715,2.167,5.41,1111122 
SCCF RECON,ioos:station:SCCF:51:1,2009-09-12T06:00:00Z,26.5545,-82.1715,2.172,5.45,1111122 
SCCF RECON,ioos:station:SCCF:51:1,2009-09-12T07:00:00Z,26.5545,-82.1715,2.201,5.65,1111122 
SCCF RECON,ioos:station:SCCF:51:1,2009-09-12T08:00:00Z,26.5545,-82.1715,2.264,5.0,1111122 
SCCF RECON,ioos:station:SCCF:51:1,2009-09-12T09:00:00Z,26.5545,-82.1715,2.351,5.28,1111122 
SCCF RECON,ioos:station:SCCF:51:1,2009-09-12T10:00:00Z,26.5545,-82.1715,2.412,5.26,1111122 
SCCF RECON,ioos:station:SCCF:51:1,2009-09-12T11:00:00Z,26.5545,-82.1715,2.409,5.18,1111122 
SCCF RECON,ioos:station:SCCF:51:1,2009-09-12T12:00:00Z,26.5545,-82.1715,2.38,5.21,1111122 
SCCF RECON,ioos:station:SCCF:51:1,2009-09-12T13:00:00Z,26.5545,-82.1715,2.25,5.2,1111122 
SCCF RECON,ioos:station:SCCF:51:1,2009-09-12T14:00:00Z,26.5545,-82.1715,2.124,5.41,1111122 
SCCF RECON,ioos:station:SCCF:51:1,2009-09-12T15:00:00Z,26.5545,-82.1715,2.0,5.27,1111122 
SCCF RECON,ioos:station:SCCF:51:1,2009-09-12T16:00:00Z,26.5545,-82.1715,1.881,5.36,1111122 
SCCF RECON,ioos:station:SCCF:51:1,2009-09-12T17:00:00Z,26.5545,-82.1715,1.763,5.71,1111122 
SCCF RECON,ioos:station:SCCF:51:1,2009-09-12T18:00:00Z,26.5545,-82.1715,1.67,6.34,1111122 
SCCF RECON,ioos:station:SCCF:51:1,2009-09-12T19:00:00Z,26.5545,-82.1715,1.646,6.69,1111122 
SCCF RECON,ioos:station:SCCF:51:1,2009-09-12T20:00:00Z,26.5545,-82.1715,1.727,6.57,1111122 
SCCF RECON,ioos:station:SCCF:51:1,2009-09-12T21:00:00Z,26.5545,-82.1715,1.788,6.77,1111122 
SCCF RECON,ioos:station:SCCF:51:1,2009-09-12T22:00:00Z,26.5545,-82.1715,1.865,6.06,1111122 
SCCF RECON,ioos:station:SCCF:51:1,2009-09-12T23:00:00Z,26.5545,-82.1715,1.955,5.61,1111122 
SCCF RECON,ioos:station:SCCF:51:1,2009-09-13T00:00:00Z,26.5545,-82.1715,2.053,5.37,1111122 
SCCF RECON,ioos:station:SCCF:51:1,2009-09-13T01:00:00Z,26.5545,-82.1715,2.084,5.14,1111122 
SCCF RECON,ioos:station:SCCF:51:1,2009-09-13T02:00:00Z,26.5545,-82.1715,2.105,5.02,1111122 
SCCF RECON,ioos:station:SCCF:51:1,2009-09-13T03:00:00Z,26.5545,-82.1715,2.135,5.13,1111122 
SCCF RECON,ioos:station:SCCF:51:1,2009-09-13T04:00:00Z,26.5545,-82.1715,2.131,4.95,1111122 
SCCF RECON,ioos:station:SCCF:51:1,2009-09-13T05:00:00Z,26.5545,-82.1715,2.125,5.09,1111122 
SCCF RECON,ioos:station:SCCF:51:1,2009-09-13T06:00:00Z,26.5545,-82.1715,2.146,4.89,1111122 
SCCF RECON,ioos:station:SCCF:51:1,2009-09-13T07:00:00Z,26.5545,-82.1715,2.164,5.22,1111122 
SCCF RECON,ioos:station:SCCF:51:1,2009-09-13T08:00:00Z,26.5545,-82.1715,2.212,4.67,1111122 
SCCF RECON,ioos:station:SCCF:51:1,2009-09-13T09:00:00Z,26.5545,-82.1715,2.266,4.83,1111122 
SCCF RECON,ioos:station:SCCF:51:1,2009-09-13T10:00:00Z,26.5545,-82.1715,2.332,5.1,1111122 
SCCF RECON,ioos:station:SCCF:51:1,2009-09-13T11:00:00Z,26.5545,-82.1715,2.393,5.17,1111122 
SCCF RECON,ioos:station:SCCF:51:1,2009-09-13T12:00:00Z,26.5545,-82.1715,2.396,5.13,1111122 
SCCF RECON,ioos:station:SCCF:51:1,2009-09-13T13:00:00Z,26.5545,-82.1715,2.362,5.09,1111122 
SCCF RECON,ioos:station:SCCF:51:1,2009-09-13T14:00:00Z,26.5545,-82.1715,2.282,5.1,1111122 
SCCF RECON,ioos:station:SCCF:51:1,2009-09-13T15:00:00Z,26.5545,-82.1715,2.179,4.73,1111122 
SCCF RECON,ioos:station:SCCF:51:1,2009-09-13T16:00:00Z,26.5545,-82.1715,2.049,6.53,1111122 
SCCF RECON,ioos:station:SCCF:51:1,2009-09-13T17:00:00Z,26.5545,-82.1715,1.924,6.77,1111122 
SCCF RECON,ioos:station:SCCF:51:1,2009-09-13T18:00:00Z,26.5545,-82.1715,1.8,7.31,1111122 
SCCF RECON,ioos:station:SCCF:51:1,2009-09-13T19:00:00Z,26.5545,-82.1715,1.699,7.47,1111122 
SCCF RECON,ioos:station:SCCF:51:1,2009-09-13T20:00:00Z,26.5545,-82.1715,1.644,7.86,1111122 
SCCF RECON,ioos:station:SCCF:51:1,2009-09-13T21:00:00Z,26.5545,-82.1715,1.67,8.06,1111122 
SCCF RECON,ioos:station:SCCF:51:1,2009-09-13T22:00:00Z,26.5545,-82.1715,1.767,8.3,1111122 
SCCF RECON,ioos:station:SCCF:51:1,2009-09-13T23:00:00Z,26.5545,-82.1715,1.857,7.89,1111122 
SCCF RECON,ioos:station:SCCF:51:1,2009-09-14T00:00:00Z,26.5545,-82.1715,1.95,6.76,1111122 
SCCF RECON,ioos:station:SCCF:51:1,2009-09-14T01:00:00Z,26.5545,-82.1715,2.02,6.93,1111122 
SCCF RECON,ioos:station:SCCF:51:1,2009-09-14T02:00:00Z,26.5545,-82.1715,2.08,6.84,1111122 
SCCF RECON,ioos:station:SCCF:51:1,2009-09-14T03:00:00Z,26.5545,-82.1715,2.131,6.45,1111122 
SCCF RECON,ioos:station:SCCF:51:1,2009-09-14T04:00:00Z,26.5545,-82.1715,2.16,6.51,1111122 
SCCF RECON,ioos:station:SCCF:51:1,2009-09-14T05:00:00Z,26.5545,-82.1715,2.132,6.47,1111122 
SCCF RECON,ioos:station:SCCF:51:1,2009-09-14T06:00:00Z,26.5545,-82.1715,2.123,6.12,1111122 
SCCF RECON,ioos:station:SCCF:51:1,2009-09-14T07:00:00Z,26.5545,-82.1715,2.113,6.15,1111122 
SCCF RECON,ioos:station:SCCF:51:1,2009-09-14T08:00:00Z,26.5545,-82.1715,2.135,6.18,1111122 
SCCF RECON,ioos:station:SCCF:51:1,2009-09-14T09:00:00Z,26.5545,-82.1715,2.167,5.7,1111122 
SCCF RECON,ioos:station:SCCF:51:1,2009-09-14T10:00:00Z,26.5545,-82.1715,2.214,6.3,1111122 
SCCF RECON,ioos:station:SCCF:51:1,2009-09-14T11:00:00Z,26.5545,-82.1715,2.269,5.27,1111122 
SCCF RECON,ioos:station:SCCF:51:1,2009-09-14T12:00:00Z,26.5545,-82.1715,2.34,4.86,1111122 
SCCF RECON,ioos:station:SCCF:51:1,2009-09-14T13:00:00Z,26.5545,-82.1715,2.393,4.94,1111122 
SCCF RECON,ioos:station:SCCF:51:1,2009-09-14T14:00:00Z,26.5545,-82.1715,2.401,4.93,1111122 
SCCF RECON,ioos:station:SCCF:51:1,2009-09-14T15:00:00Z,26.5545,-82.1715,2.369,5.71,1111122 
SCCF RECON,ioos:station:SCCF:51:1,2009-09-14T16:00:00Z,26.5545,-82.1715,2.278,6.05,1111122 
SCCF RECON,ioos:station:SCCF:51:1,2009-09-14T17:00:00Z,26.5545,-82.1715,2.14,6.31,1111122 
SCCF RECON,ioos:station:SCCF:51:1,2009-09-14T18:00:00Z,26.5545,-82.1715,1.98,7.07,1111122 
SCCF RECON,ioos:station:SCCF:51:1,2009-09-14T19:00:00Z,26.5545,-82.1715,1.832,7.26,1111122 
SCCF RECON,ioos:station:SCCF:51:1,2009-09-14T20:00:00Z,26.5545,-82.1715,1.711,7.38,1111122 
SCCF RECON,ioos:station:SCCF:51:1,2009-09-14T21:00:00Z,26.5545,-82.1715,1.656,7.66,1111122 
SCCF RECON,ioos:station:SCCF:51:1,2009-09-14T22:00:00Z,26.5545,-82.1715,1.68,7.75,1111122 
SCCF RECON,ioos:station:SCCF:51:1,2009-09-14T23:00:00Z,26.5545,-82.1715,1.77,8.01,1111122 
SCCF RECON,ioos:station:SCCF:51:1,2009-09-15T00:00:00Z,26.5545,-82.1715,1.87,7.59,1111122 
SCCF RECON,ioos:station:SCCF:51:1,2009-09-15T01:00:00Z,26.5545,-82.1715,2.0,6.53,1111122 
SCCF RECON,ioos:station:SCCF:51:1,2009-09-15T02:00:00Z,26.5545,-82.1715,2.091,6.24,1111122 
SCCF RECON,ioos:station:SCCF:51:1,2009-09-15T03:00:00Z,26.5545,-82.1715,2.151,6.13,1111122 
SCCF RECON,ioos:station:SCCF:51:1,2009-09-15T04:00:00Z,26.5545,-82.1715,2.19,6.58,1111122 
SCCF RECON,ioos:station:SCCF:51:1,2009-09-15T05:00:00Z,26.5545,-82.1715,2.186,6.43,1111122 
SCCF RECON,ioos:station:SCCF:51:1,2009-09-15T06:00:00Z,26.5545,-82.1715,2.142,6.43,1111122 
SCCF RECON,ioos:station:SCCF:51:1,2009-09-15T07:00:00Z,26.5545,-82.1715,2.083,5.85,1111122 
SCCF RECON,ioos:station:SCCF:51:1,2009-09-15T08:00:00Z,26.5545,-82.1715,2.034,6.01,1111122 
SCCF RECON,ioos:station:SCCF:51:1,2009-09-15T09:00:00Z,26.5545,-82.1715,2.038,6.25,1111122 
SCCF RECON,ioos:station:SCCF:51:1,2009-09-15T10:00:00Z,26.5545,-82.1715,2.09,6.9,1111122 
SCCF RECON,ioos:station:SCCF:51:1,2009-09-15T11:00:00Z,26.5545,-82.1715,2.159,6.69,1111122 
SCCF RECON,ioos:station:SCCF:51:1,2009-09-15T12:00:00Z,26.5545,-82.1715,2.241,5.13,1111122 
SCCF RECON,ioos:station:SCCF:51:1,2009-09-15T13:00:00Z,26.5545,-82.1715,2.351,5.04,1111122 
SCCF RECON,ioos:station:SCCF:51:1,2009-09-15T14:00:00Z,26.5545,-82.1715,2.421,4.87,1111122 
SCCF RECON,ioos:station:SCCF:51:1,2009-09-15T15:00:00Z,26.5545,-82.1715,2.417,5.2,1111122 
SCCF RECON,ioos:station:SCCF:51:1,2009-09-15T16:00:00Z,26.5545,-82.1715,2.347,5.61,1111122 
SCCF RECON,ioos:station:SCCF:51:1,2009-09-15T17:00:00Z,26.5545,-82.1715,2.25,5.9,1111122 
SCCF RECON,ioos:station:SCCF:51:1,2009-09-15T18:00:00Z,26.5545,-82.1715,2.11,6.0,1111122 
SCCF RECON,ioos:station:SCCF:51:1,2009-09-15T19:00:00Z,26.5545,-82.1715,1.96,4.98,1111122 
SCCF RECON,ioos:station:SCCF:51:1,2009-09-15T20:00:00Z,26.5545,-82.1715,1.824,6.3,1111122 
SCCF RECON,ioos:station:SCCF:51:1,2009-09-15T21:00:00Z,26.5545,-82.1715,1.73,6.58,1111122 
SCCF RECON,ioos:station:SCCF:51:1,2009-09-15T22:00:00Z,26.5545,-82.1715,1.691,6.61,1111122 
SCCF RECON,ioos:station:SCCF:51:1,2009-09-15T23:00:00Z,26.5545,-82.1715,1.727,6.73,1111122 
SCCF RECON,ioos:station:SCCF:51:1,2009-09-16T00:00:00Z,26.5545,-82.1715,1.828,7.64,1111122 
SCCF RECON,ioos:station:SCCF:51:1,2009-09-16T01:00:00Z,26.5545,-82.1715,1.957,6.9,1111122 
SCCF RECON,ioos:station:SCCF:51:1,2009-09-16T02:00:00Z,26.5545,-82.1715,2.063,6.21,1111122 
SCCF RECON,ioos:station:SCCF:51:1,2009-09-16T03:00:00Z,26.5545,-82.1715,2.17,5.82,1111122 
SCCF RECON,ioos:station:SCCF:51:1,2009-09-16T04:00:00Z,26.5545,-82.1715,2.242,5.51,1111122 
SCCF RECON,ioos:station:SCCF:51:1,2009-09-16T05:00:00Z,26.5545,-82.1715,2.26,5.93,1111122 
SCCF RECON,ioos:station:SCCF:51:1,2009-09-16T06:00:00Z,26.5545,-82.1715,2.22,5.81,1111122 
SCCF RECON,ioos:station:SCCF:51:1,2009-09-16T07:00:00Z,26.5545,-82.1715,2.158,5.8,1111122 
SCCF RECON,ioos:station:SCCF:51:1,2009-09-16T08:00:00Z,26.5545,-82.1715,2.071,5.7,1111122 
SCCF RECON,ioos:station:SCCF:51:1,2009-09-16T09:00:00Z,26.5545,-82.1715,2.014,5.81,1111122 
SCCF RECON,ioos:station:SCCF:51:1,2009-09-16T10:00:00Z,26.5545,-82.1715,2.01,5.24,1111122 
SCCF RECON,ioos:station:SCCF:51:1,2009-09-16T11:00:00Z,26.5545,-82.1715,2.066,5.48,1111122 
SCCF RECON,ioos:station:SCCF:51:1,2009-09-16T12:00:00Z,26.5545,-82.1715,2.165,5.63,1111122 
SCCF RECON,ioos:station:SCCF:51:1,2009-09-16T13:00:00Z,26.5545,-82.1715,2.289,5.25,1111122 
SCCF RECON,ioos:station:SCCF:51:1,2009-09-16T14:00:00Z,26.5545,-82.1715,2.397,5.09,1111122 
SCCF RECON,ioos:station:SCCF:51:1,2009-09-16T15:00:00Z,26.5545,-82.1715,2.454,5.24,1111122 
SCCF RECON,ioos:station:SCCF:51:1,2009-09-16T16:00:00Z,26.5545,-82.1715,2.452,5.63,1111122 
SCCF RECON,ioos:station:SCCF:51:1,2009-09-16T17:00:00Z,26.5545,-82.1715,2.389,5.97,1111122 
SCCF RECON,ioos:station:SCCF:51:1,2009-09-16T18:00:00Z,26.5545,-82.1715,2.281,6.22,1111122 
SCCF RECON,ioos:station:SCCF:51:1,2009-09-16T19:00:00Z,26.5545,-82.1715,2.14,6.49,1111122 
SCCF RECON,ioos:station:SCCF:51:1,2009-09-16T20:00:00Z,26.5545,-82.1715,1.99,6.82,1111122 
SCCF RECON,ioos:station:SCCF:51:1,2009-09-16T21:00:00Z,26.5545,-82.1715,1.859,6.98,1111122 
SCCF RECON,ioos:station:SCCF:51:1,2009-09-16T22:00:00Z,26.5545,-82.1715,1.759,7.22,1111122 
SCCF RECON,ioos:station:SCCF:51:1,2009-09-16T23:00:00Z,26.5545,-82.1715,1.696,7.14,1111122 
SCCF RECON,ioos:station:SCCF:51:1,2009-09-17T00:00:00Z,26.5545,-82.1715,1.74,7.23,1111122 
SCCF RECON,ioos:station:SCCF:51:1,2009-09-17T01:00:00Z,26.5545,-82.1715,1.861,6.75,1111122 
SCCF RECON,ioos:station:SCCF:51:1,2009-09-17T02:00:00Z,26.5545,-82.1715,2.02,6.49,1111122 
SCCF RECON,ioos:station:SCCF:51:1,2009-09-17T03:00:00Z,26.5545,-82.1715,2.17,6.14,1111122 
SCCF RECON,ioos:station:SCCF:51:1,2009-09-17T04:00:00Z,26.5545,-82.1715,2.251,5.89,1111122 
SCCF RECON,ioos:station:SCCF:51:1,2009-09-17T05:00:00Z,26.5545,-82.1715,2.266,6.13,1111122 
SCCF RECON,ioos:station:SCCF:51:1,2009-09-17T06:00:00Z,26.5545,-82.1715,2.22,6.12,1111122 
SCCF RECON,ioos:station:SCCF:51:1,2009-09-17T07:00:00Z,26.5545,-82.1715,2.127,6.08,1111122 
SCCF RECON,ioos:station:SCCF:51:1,2009-09-17T08:00:00Z,26.5545,-82.1715,2.028,6.02,1111122 
SCCF RECON,ioos:station:SCCF:51:1,2009-09-17T09:00:00Z,26.5545,-82.1715,1.937,5.64,1111122 
SCCF RECON,ioos:station:SCCF:51:1,2009-09-17T10:00:00Z,26.5545,-82.1715,1.872,5.69,1111122 
SCCF RECON,ioos:station:SCCF:51:1,2009-09-17T11:00:00Z,26.5545,-82.1715,1.87,5.69,1111122 
SCCF RECON,ioos:station:SCCF:51:1,2009-09-17T12:00:00Z,26.5545,-82.1715,1.959,5.47,1111122 
SCCF RECON,ioos:station:SCCF:51:1,2009-09-17T13:00:00Z,26.5545,-82.1715,2.08,5.23,1111122 
SCCF RECON,ioos:station:SCCF:51:1,2009-09-17T14:00:00Z,26.5545,-82.1715,2.25,5.15,1111122 
SCCF RECON,ioos:station:SCCF:51:1,2009-09-17T15:00:00Z,26.5545,-82.1715,2.37,5.11,1111122 
SCCF RECON,ioos:station:SCCF:51:1,2009-09-17T16:00:00Z,26.5545,-82.1715,2.43,5.22,1111122 
SCCF RECON,ioos:station:SCCF:51:1,2009-09-17T17:00:00Z,26.5545,-82.1715,2.423,5.3,1111122 
SCCF RECON,ioos:station:SCCF:51:1,2009-09-17T18:00:00Z,26.5545,-82.1715,2.358,5.58,1111122 
SCCF RECON,ioos:station:SCCF:51:1,2009-09-17T19:00:00Z,26.5545,-82.1715,2.247,5.84,1111122 
SCCF RECON,ioos:station:SCCF:51:1,2009-09-17T20:00:00Z,26.5545,-82.1715,2.11,5.8,1111122 
SCCF RECON,ioos:station:SCCF:51:1,2009-09-17T21:00:00Z,26.5545,-82.1715,1.973,6.21,1111122 
SCCF RECON,ioos:station:SCCF:51:1,2009-09-17T22:00:00Z,26.5545,-82.1715,1.85,6.1,1111122 
SCCF RECON,ioos:station:SCCF:51:1,2009-09-17T23:00:00Z,26.5545,-82.1715,1.776,5.86,1111122 
SCCF RECON,ioos:station:SCCF:51:1,2009-09-18T00:00:00Z,26.5545,-82.1715,1.772,5.84,1111122 
SCCF RECON,ioos:station:SCCF:51:1,2009-09-18T01:00:00Z,26.5545,-82.1715,1.86,5.88,1111122 
SCCF RECON,ioos:station:SCCF:51:1,2009-09-18T02:00:00Z,26.5545,-82.1715,1.997,5.81,1111122 
SCCF RECON,ioos:station:SCCF:51:1,2009-09-18T03:00:00Z,26.5545,-82.1715,2.16,5.79,1111122 
SCCF RECON,ioos:station:SCCF:51:1,2009-09-18T04:00:00Z,26.5545,-82.1715,2.274,5.78,1111122 
SCCF RECON,ioos:station:SCCF:51:1,2009-09-18T05:00:00Z,26.5545,-82.1715,2.3,5.85,1111122 
SCCF RECON,ioos:station:SCCF:51:1,2009-09-18T06:00:00Z,26.5545,-82.1715,2.25,5.74,1111122 
SCCF RECON,ioos:station:SCCF:51:1,2009-09-18T07:00:00Z,26.5545,-82.1715,2.17,5.78,1111122 
SCCF RECON,ioos:station:SCCF:51:1,2009-09-18T08:00:00Z,26.5545,-82.1715,2.06,5.7,1111122 
SCCF RECON,ioos:station:SCCF:51:1,2009-09-18T09:00:00Z,26.5545,-82.1715,1.94,5.5,1111122 
SCCF RECON,ioos:station:SCCF:51:1,2009-09-18T10:00:00Z,26.5545,-82.1715,1.825,5.23,1111122 
SCCF RECON,ioos:station:SCCF:51:1,2009-09-18T11:00:00Z,26.5545,-82.1715,1.765,5.39,1111122 
SCCF RECON,ioos:station:SCCF:51:1,2009-09-18T12:00:00Z,26.5545,-82.1715,1.79,5.13,1111122 
SCCF RECON,ioos:station:SCCF:51:1,2009-09-18T13:00:00Z,26.5545,-82.1715,1.881,4.94,1111122 
SCCF RECON,ioos:station:SCCF:51:1,2009-09-18T14:00:00Z,26.5545,-82.1715,2.02,5.25,1111122 
SCCF RECON,ioos:station:SCCF:51:1,2009-09-18T15:00:00Z,26.5545,-82.1715,2.196,5.59,1111122 
SCCF RECON,ioos:station:SCCF:51:1,2009-09-18T16:00:00Z,26.5545,-82.1715,2.322,5.8,1111122 
SCCF RECON,ioos:station:SCCF:51:1,2009-09-18T17:00:00Z,26.5545,-82.1715,2.366,6.22,1111122 
SCCF RECON,ioos:station:SCCF:51:1,2009-09-18T18:00:00Z,26.5545,-82.1715,2.362,6.48,1111122 
SCCF RECON,ioos:station:SCCF:51:1,2009-09-18T19:00:00Z,26.5545,-82.1715,2.295,6.66,1111122 
SCCF RECON,ioos:station:SCCF:51:1,2009-09-18T20:00:00Z,26.5545,-82.1715,2.186,7.36,1111122 
SCCF RECON,ioos:station:SCCF:51:1,2009-09-18T21:00:00Z,26.5545,-82.1715,2.056,7.16,1111122 
SCCF RECON,ioos:station:SCCF:51:1,2009-09-18T22:00:00Z,26.5545,-82.1715,1.939,7.38,1111122 
SCCF RECON,ioos:station:SCCF:51:1,2009-09-18T23:00:00Z,26.5545,-82.1715,1.847,8.05,1111122 
SCCF RECON,ioos:station:SCCF:51:1,2009-09-19T00:00:00Z,26.5545,-82.1715,1.815,8.31,1111122 
SCCF RECON,ioos:station:SCCF:51:1,2009-09-19T01:00:00Z,26.5545,-82.1715,1.89,7.57,1111122 
SCCF RECON,ioos:station:SCCF:51:1,2009-09-19T02:00:00Z,26.5545,-82.1715,2.005,7.06,1111122 
SCCF RECON,ioos:station:SCCF:51:1,2009-09-19T03:00:00Z,26.5545,-82.1715,2.167,6.96,1111122 
SCCF RECON,ioos:station:SCCF:51:1,2009-09-19T04:00:00Z,26.5545,-82.1715,2.291,6.69,1111122 
SCCF RECON,ioos:station:SCCF:51:1,2009-09-19T05:00:00Z,26.5545,-82.1715,2.344,6.31,1111122 
SCCF RECON,ioos:station:SCCF:51:1,2009-09-19T06:00:00Z,26.5545,-82.1715,2.323,6.21,1111122 
SCCF RECON,ioos:station:SCCF:51:1,2009-09-19T07:00:00Z,26.5545,-82.1715,2.25,6.29,1111122 
SCCF RECON,ioos:station:SCCF:51:1,2009-09-19T08:00:00Z,26.5545,-82.1715,2.16,6.37,1111122 
SCCF RECON,ioos:station:SCCF:51:1,2009-09-19T09:00:00Z,26.5545,-82.1715,2.044,5.83,1111122 
SCCF RECON,ioos:station:SCCF:51:1,2009-09-19T10:00:00Z,26.5545,-82.1715,1.92,5.75,1111122 
SCCF RECON,ioos:station:SCCF:51:1,2009-09-19T11:00:00Z,26.5545,-82.1715,1.805,5.98,1111122 
SCCF RECON,ioos:station:SCCF:51:1,2009-09-19T12:00:00Z,26.5545,-82.1715,1.754,5.46,1111122 
SCCF RECON,ioos:station:SCCF:51:1,2009-09-19T13:00:00Z,26.5545,-82.1715,1.781,5.61,1111122 
SCCF RECON,ioos:station:SCCF:51:1,2009-09-19T14:00:00Z,26.5545,-82.1715,1.879,5.52,1111122 
SCCF RECON,ioos:station:SCCF:51:1,2009-09-19T15:00:00Z,26.5545,-82.1715,2.035,5.74,1111122 
SCCF RECON,ioos:station:SCCF:51:1,2009-09-19T16:00:00Z,26.5545,-82.1715,2.196,6.03,1111122 
SCCF RECON,ioos:station:SCCF:51:1,2009-09-19T17:00:00Z,26.5545,-82.1715,2.296,6.34,1111122 
SCCF RECON,ioos:station:SCCF:51:1,2009-09-19T18:00:00Z,26.5545,-82.1715,2.341,6.78,1111122 
SCCF RECON,ioos:station:SCCF:51:1,2009-09-19T19:00:00Z,26.5545,-82.1715,2.316,6.77,1111122 
SCCF RECON,ioos:station:SCCF:51:1,2009-09-19T20:00:00Z,26.5545,-82.1715,2.234,7.24,1111122 
SCCF RECON,ioos:station:SCCF:51:1,2009-09-19T21:00:00Z,26.5545,-82.1715,2.133,7.56,1111122 
SCCF RECON,ioos:station:SCCF:51:1,2009-09-19T22:00:00Z,26.5545,-82.1715,2.042,7.52,1111122 
SCCF RECON,ioos:station:SCCF:51:1,2009-09-19T23:00:00Z,26.5545,-82.1715,1.953,7.04,1111122 
SCCF RECON,ioos:station:SCCF:51:1,2009-09-20T00:00:00Z,26.5545,-82.1715,1.852,7.02,1111122 
SCCF RECON,ioos:station:SCCF:51:1,2009-09-20T01:00:00Z,26.5545,-82.1715,1.855,6.91,1111122 
SCCF RECON,ioos:station:SCCF:51:1,2009-09-20T02:00:00Z,26.5545,-82.1715,1.939,6.73,1111122 
SCCF RECON,ioos:station:SCCF:51:1,2009-09-20T03:00:00Z,26.5545,-82.1715,2.079,6.32,1111122 
SCCF RECON,ioos:station:SCCF:51:1,2009-09-20T04:00:00Z,26.5545,-82.1715,2.245,6.01,1111122 
SCCF RECON,ioos:station:SCCF:51:1,2009-09-20T05:00:00Z,26.5545,-82.1715,2.339,5.92,1111122 
SCCF RECON,ioos:station:SCCF:51:1,2009-09-20T06:00:00Z,26.5545,-82.1715,2.361,5.82,1111122 
SCCF RECON,ioos:station:SCCF:51:1,2009-09-20T07:00:00Z,26.5545,-82.1715,2.313,5.91,1111122 
SCCF RECON,ioos:station:SCCF:51:1,2009-09-20T08:00:00Z,26.5545,-82.1715,2.24,5.89,1111122 
SCCF RECON,ioos:station:SCCF:51:1,2009-09-20T09:00:00Z,26.5545,-82.1715,2.14,6.37,1111122 
SCCF RECON,ioos:station:SCCF:51:1,2009-09-20T10:00:00Z,26.5545,-82.1715,2.014,5.77,1111122 
SCCF RECON,ioos:station:SCCF:51:1,2009-09-20T11:00:00Z,26.5545,-82.1715,1.89,5.45,1111122 
SCCF RECON,ioos:station:SCCF:51:1,2009-09-20T12:00:00Z,26.5545,-82.1715,1.788,5.35,1111122 
SCCF RECON,ioos:station:SCCF:51:1,2009-09-20T13:00:00Z,26.5545,-82.1715,1.733,5.07,1111122 
SCCF RECON,ioos:station:SCCF:51:1,2009-09-20T14:00:00Z,26.5545,-82.1715,1.79,5.31,1111122 
SCCF RECON,ioos:station:SCCF:51:1,2009-09-20T15:00:00Z,26.5545,-82.1715,1.911,5.6,1111122 
SCCF RECON,ioos:station:SCCF:51:1,2009-09-20T16:00:00Z,26.5545,-82.1715,2.085,5.71,1111122 
SCCF RECON,ioos:station:SCCF:51:1,2009-09-20T17:00:00Z,26.5545,-82.1715,2.225,5.8,1111122 
SCCF RECON,ioos:station:SCCF:51:1,2009-09-20T18:00:00Z,26.5545,-82.1715,2.282,6.49,1111122 
SCCF RECON,ioos:station:SCCF:51:1,2009-09-20T19:00:00Z,26.5545,-82.1715,2.301,6.73,1111122 
SCCF RECON,ioos:station:SCCF:51:1,2009-09-20T20:00:00Z,26.5545,-82.1715,2.265,6.65,1111122 
SCCF RECON,ioos:station:SCCF:51:1,2009-09-20T21:00:00Z,26.5545,-82.1715,2.199,7.03,1111122 
SCCF RECON,ioos:station:SCCF:51:1,2009-09-20T22:00:00Z,26.5545,-82.1715,2.13,7.01,1111122 
SCCF RECON,ioos:station:SCCF:51:1,2009-09-20T23:00:00Z,26.5545,-82.1715,2.023,6.85,1111122 
SCCF RECON,ioos:station:SCCF:51:1,2009-09-21T00:00:00Z,26.5545,-82.1715,1.996,6.53,1111122 
SCCF RECON,ioos:station:SCCF:51:1,2009-09-21T01:00:00Z,26.5545,-82.1715,1.962,6.7,1111122 
SCCF RECON,ioos:station:SCCF:51:1,2009-09-21T02:00:00Z,26.5545,-82.1715,1.989,6.81,1111122 
SCCF RECON,ioos:station:SCCF:51:1,2009-09-21T03:00:00Z,26.5545,-82.1715,2.06,6.87,1111122 
SCCF RECON,ioos:station:SCCF:51:1,2009-09-21T04:00:00Z,26.5545,-82.1715,2.205,6.0,1111122 
SCCF RECON,ioos:station:SCCF:51:1,2009-09-21T05:00:00Z,26.5545,-82.1715,2.319,5.83,1111122 
SCCF RECON,ioos:station:SCCF:51:1,2009-09-21T06:00:00Z,26.5545,-82.1715,2.38,5.72,1111122 
SCCF RECON,ioos:station:SCCF:51:1,2009-09-21T07:00:00Z,26.5545,-82.1715,2.37,5.74,1111122 
SCCF RECON,ioos:station:SCCF:51:1,2009-09-21T08:00:00Z,26.5545,-82.1715,2.3,5.9,1111122 
SCCF RECON,ioos:station:SCCF:51:1,2009-09-21T09:00:00Z,26.5545,-82.1715,2.2,6.12,1111122 
SCCF RECON,ioos:station:SCCF:51:1,2009-09-21T10:00:00Z,26.5545,-82.1715,2.074,6.13,1111122 
SCCF RECON,ioos:station:SCCF:51:1,2009-09-21T11:00:00Z,26.5545,-82.1715,1.94,5.78,1111122 
SCCF RECON,ioos:station:SCCF:51:1,2009-09-21T12:00:00Z,26.5545,-82.1715,1.819,5.22,1111122 
SCCF RECON,ioos:station:SCCF:51:1,2009-09-21T13:00:00Z,26.5545,-82.1715,1.73,5.35,1111122 
SCCF RECON,ioos:station:SCCF:51:1,2009-09-21T14:00:00Z,26.5545,-82.1715,1.688,5.28,1111122 
SCCF RECON,ioos:station:SCCF:51:1,2009-09-21T15:00:00Z,26.5545,-82.1715,1.75,5.76,1111122 